Location: Aumühle
(46.9793°N, 8.4136°E)
Time: 15:41:07
(UTC+00:00)

Daily predictions for brighter satellites

Satellite Brightness Start Highest point End
(mag) Time Altitude Azimuth Time Altitude Azimuth Time Altitude Azimuth
Cosmos 1515 3.9 19:40:48 10° S 19:44:27 50° E 19:48:07 10° NNE
CZ-4B R/B 1.4 19:42:04 10° NNE 19:45:12 52° E 19:48:17 10° S
SPOT 1/Viking Rocket 3.7 19:41:07 10° SSE 19:46:13 63° ENE 19:51:19 10° N
Helios 1A Rocket 4.4 19:43:36 10° ESE 19:46:46 23° ENE 19:49:57 10° NNE
Resurs 1-3 4.3 19:42:43 10° S 19:47:01 56° W 19:51:22 10° NNW
Meteor 1-27 Rocket 3.9 19:41:30 10° S 19:47:10 60° E 19:52:58 10° NNE
Cosmos 1633 Rocket 3.7 19:46:54 10° NNW 19:51:12 56° W 19:55:27 10° S
Cosmos 2219 3.5 19:46:48 10° NNW 19:52:24 68° WSW 19:57:57 10° SSE
SJ 16-02 2.3 19:50:17 10° SSE 19:53:56 27° E 19:57:38 10° NE
H-2A R/B 4.5 19:50:25 10° SSW 19:54:13 29° W 19:57:55 10° NW
Cosmos 1315 Rocket 4.2 19:50:36 10° NNW 19:54:25 39° W 19:58:10 10° SSW
Cosmos 1340 2.7 19:51:07 10° S 19:54:46 57° E 19:58:28 10° NNE
Cosmos 2082 3.7 19:53:36 10° NNW 19:59:16 76° ENE 20:04:52 10° SSE
Meteor 1-11 Rocket 4.1 19:54:19 10° NNW 20:00:20 78° W 20:06:15 10° S
Cosmos 482 Debris 4.2 19:58:51 10° WNW 20:01:25 55° NNE 20:05:17 10° ESE
Cosmos 2263 Rocket 2.8 19:56:58 10° NNW 20:02:19 44° NE 20:07:29 11° SE
Cosmos 1470 Rocket 3.8 19:58:17 10° NNW 20:02:37 72° W 20:06:54 10° S
Cosmos 1743 2.6 20:02:03 10° N 20:05:51 89° E 20:09:37 10° S
Ariane Rocket 3.0 20:01:00 10° SSE 20:06:04 87° ENE 20:11:12 10° NNW
SPOT 5 3.7 20:06:30 11° SE 20:11:15 40° ENE 20:16:00 10° N
BREEZE-M DEB (TANK) 2.5 20:08:43 10° W 20:11:29 54° NNW 20:13:38 10° ENE
IRAS Rocket 4.3 20:06:16 10° NNE 20:11:55 84° ESE 20:17:34 10° SSW
Terra 3.1 20:09:04 11° ESE 20:12:56 28° ENE 20:16:58 10° N
Resurs 01 Rocket 2.2 20:10:32 10° S 20:14:51 58° W 20:19:14 10° NNW
Aureole 1 Rocket 2.5 20:13:41 10° SSW 20:16:51 66° WNW 20:19:49 10° NNE
Cosmos 1515 Rocket 3.8 20:13:11 10° SSW 20:17:32 74° W 20:21:57 10° N
Cosmos 1809 Rocket 4.5 20:12:25 10° N 20:18:35 74° E 20:24:44 10° SSE
Cosmos 2227 Rocket 3.4 20:15:03 10° NW 20:20:14 37° WSW 20:25:22 10° S
Cosmos 921 Rocket 3.1 20:17:02 10° NNW 20:21:35 88° WSW 20:25:38 13° SSE
Cosmos 1980 Rocket 2.2 20:24:03 10° SSW 20:29:41 82° ESE 20:35:23 10° NNE
CARTOSAT-1 3.6 20:26:14 12° SSE 20:30:17 84° WSW 20:34:38 10° NNW
Cosmos 1869 Rocket 3.7 20:26:29 10° N 20:30:59 66° E 20:34:33 16° SSE
SL-24 R/B - RUBIN 2 4.3 20:26:54 10° NNW 20:31:07 45° NE 20:34:41 15° ESE
Cosmos 2228 Rocket 3.3 20:29:01 11° S 20:33:12 54° E 20:37:38 10° NNE
Cosmos 1464 Rocket 4.2 20:28:08 10° SSW 20:34:19 72° W 20:40:29 10° N
Cosmos 1378 3.7 20:34:31 18° SSE 20:36:47 39° E 20:40:12 10° NNE
Cosmos 2344 3.5 20:30:28 10° SW 20:37:58 87° SE 20:45:44 10° NE
Cosmos 2322 Rocket 3.5 20:36:17 16° SE 20:38:32 20° E 20:42:31 10° NE
Cosmos 1777 Rocket 4.1 20:33:51 10° S 20:38:56 57° ESE 20:44:05 10° NNE
ISS -3.7 20:35:49 10° WNW 20:39:11 81° NNE 20:41:27 19° ESE
Cosmos 2369 3.9 20:33:45 10° SSW 20:39:23 76° WNW 20:45:05 10° NNE
Spot 2 Rocket 3.5 20:35:42 16° SSE 20:39:45 72° ENE 20:44:48 10° N
Cosmos 1354 Rocket 4.0 20:34:53 10° SSW 20:40:09 90° SSW 20:45:31 10° NNE
SPOT 3 Rocket 3.7 20:36:10 12° S 20:40:58 74° WSW 20:46:09 10° NNW
Cosmos 773 Rocket 4.0 20:36:01 10° NNW 20:41:16 84° WSW 20:45:19 17° SSE
Cosmos 1536 4.5 20:37:44 10° NNW 20:41:19 31° W 20:44:54 10° SSW
Cosmos 1844 Rocket 4.3 20:37:08 10° N 20:41:36 24° NE 20:46:01 10° E
ATLAS 2AS CENTAUR R/B 2.9 20:34:55 10° SSW 20:42:39 71° ESE 20:50:11 10° NE
Okean 1 3.3 20:40:31 10° S 20:44:30 83° W 20:48:33 10° N
Meteor 2-4 Rocket 4.1 20:40:22 15° SSE 20:45:00 48° E 20:50:24 10° NNE
H-2A R/B 4.4 20:42:31 10° N 20:45:48 23° WNW 20:49:04 10° WSW
Meteor 1-19 Rocket 4.1 20:41:11 10° S 20:46:37 89° ESE 20:52:04 10° NNE
Cosmos 1092 Rocket 4.0 20:41:06 10° N 20:47:18 72° E 20:52:05 17° SSE
Nadezhda 4 Rocket 4.3 20:41:53 10° NNW 20:48:04 69° W 20:54:08 10° S
RESURS DK-1 2.2 20:44:25 10° SSW 20:48:32 76° ESE 20:52:39 10° NNE
Cosmos 1697 Rocket 4.1 20:43:26 10° SW 20:48:46 41° NW 20:54:08 10° NNE
SL-4 R/B 3.9 20:46:20 10° W 20:49:48 22° SW 20:52:09 14° S
Cosmos 1634 Rocket 4.1 20:49:58 15° SSE 20:55:00 59° E 21:01:04 10° NNE
ARIANE 5 R/B 3.0 20:53:39 22° SE 20:56:20 54° ENE 21:00:45 10° N
Cosmos 1707 Rocket 3.8 20:54:13 21° SSE 20:56:54 51° E 21:01:11 10° NNE
ATLAS CENTAUR R/B 3.8 20:53:22 10° NNW 20:57:04 21° NNE 21:00:41 10° E
Cosmos 44 Rocket 3.2 20:53:54 10° NW 20:58:38 82° NE 21:01:28 24° SE
Cosmos 2227 4.2 20:58:28 10° NNW 21:04:16 82° ENE 21:07:59 23° SSE
Cosmos 158 Rocket 4.0 21:00:58 10° NNW 21:06:07 87° WSW 21:09:24 24° SSE
ATLAS 3B R/B 3.1 21:00:26 10° NW 21:07:47 71° NE 21:13:24 20° SE
NOSS 2-1 (E) 3.1 21:08:10 35° SSE 21:08:49 41° SE 21:11:52 10° NE
Cosmos 1975 2.8 21:07:17 10° N 21:11:22 81° W 21:13:33 26° S
USA 81 4.0 21:09:00 21° S 21:12:33 71° E 21:17:49 10° N
Cosmos 2026 Rocket 4.0 21:06:22 10° N 21:12:33 88° W 21:17:00 20° S
ERS-1 Rocket 3.2 21:12:32 20° S 21:15:57 66° WSW 21:21:00 10° NNW
SL-16 R/B 2.3 21:13:28 19° S 21:17:28 55° ESE 21:23:01 10° NE
Meteor 1-4 Rocket 3.4 21:15:29 10° N 21:18:42 34° ENE 21:19:36 29° ESE
CZ-4C R/B 4.3 21:13:19 10° NNW 21:19:15 31° NNE 21:26:11 10° E
Cosmos 1538 Rocket 3.9 21:16:13 10° NNW 21:21:30 90° WSW 21:24:18 28° SSE
Helios 1A Rocket 4.2 21:19:01 16° SSW 21:21:41 34° W 21:25:22 10° NNW
CZ-2C R/B 4.0 21:19:01 10° N 21:23:48 73° WNW 21:27:47 15° SSW
GENESIS II 4.0 21:20:47 15° SSW 21:23:53 78° SE 21:27:49 10° NE
Cosmos 1733 Rocket 3.0 21:21:11 10° N 21:25:41 85° E 21:27:44 32° SSE
Meteor 2-8 Rocket 4.4 21:25:01 18° S 21:29:46 87° W 21:35:54 10° N
OE (NEXTSAT) 4.0 21:27:50 10° W 21:31:08 76° S 21:32:08 41° E
Geosat 4.1 21:28:35 28° SE 21:31:13 72° ENE 21:36:15 10° NNW
EP 1 4.5 21:29:19 20° SW 21:31:27 89° SE 21:34:14 10° NE
SJ 16-02 3.0 21:28:25 10° SW 21:32:22 33° WNW 21:36:23 10° N
SAR-Lupe-4 3.5 21:28:49 10° NNE 21:32:24 66° ESE 21:33:21 44° SSE
Cosmos 1356 3.8 21:35:10 42° ESE 21:35:18 42° E 21:38:27 10° NNE
Cosmos 2292 Rocket 4.4 21:34:35 10° NNW 21:37:10 26° W 21:38:15 21° SW
Cosmos 1908 Rocket 4.2 21:33:07 10° N 21:37:14 40° ENE 21:38:37 31° ESE
Cosmos 923 Rocket 4.3 21:34:21 10° NNW 21:39:39 60° ENE 21:42:10 30° SE
Cosmos 1862 Rocket 3.5 21:37:31 31° S 21:39:40 89° E 21:44:11 10° N
Cosmos 2360 Rocket 2.7 21:40:43 31° SSE 21:42:36 41° ESE 21:47:51 10° NE
Cosmos 1937 Rocket 4.4 21:42:39 28° ESE 21:43:45 30° E 21:48:19 10° NE
Cosmos 1726 3.2 21:41:15 10° N 21:44:32 30° ENE 21:45:09 28° E
Cosmos 2263 Rocket 3.4 21:41:11 10° NW 21:46:06 33° WSW 21:49:11 19° SSW
ALOS 2 4.4 21:44:37 17° E 21:46:26 22° ENE 21:49:48 10° NNE
Meteor 1-13 Rocket 4.3 21:44:29 32° SSE 21:47:00 60° E 21:52:27 10° NNE
Cosmos 2266 Rocket 4.2 21:42:13 10° N 21:48:23 56° ENE 21:51:20 30° SE
NOSS 2-1 (C) 3.3 21:46:44 16° SW 21:49:12 59° NW 21:52:26 10° NNE
SPOT 5 4.4 21:45:43 15° SSW 21:49:21 31° W 21:53:55 10° NNW
Terra 2.8 21:47:57 22° SSW 21:50:31 39° W 21:55:00 10° NNW
Cosmos 1441 Rocket 3.1 21:51:03 45° SSW 21:52:06 83° W 21:55:51 10° N
Cosmos 1346 Rocket 3.8 21:50:23 20° SW 21:52:52 43° WNW 21:56:43 10° N
SAR-Lupe-1 4.5 21:49:52 10° N 21:53:25 59° WNW 21:54:46 33° SW
Cosmos 2279 Rocket 4.1 21:53:29 23° SSW 21:57:34 76° W 22:03:49 10° N
NOSS 2-1 (D) 3.8 21:56:58 13° WSW 21:59:41 45° NW 22:02:51 10° NNE
Cosmos 2112 Rocket 4.3 21:54:56 10° NNW 22:00:13 59° ENE 22:02:27 33° SE
USA 215 3.5 21:54:13 10° ENE 22:00:29 45° SE 22:03:42 27° S
Cosmos 990 Rocket 3.9 21:57:54 30° SSW 22:00:33 83° ESE 22:05:50 10° NNE
Cosmos 2278 Rocket 4.5 21:57:28 10° N 22:01:11 17° NE 22:04:52 10° E
Cosmos 1680 Rocket 3.6 21:56:00 10° NNW 22:01:19 69° ENE 22:03:26 36° SE
MINOTAUR IV R/B 4.5 22:00:16 34° SSW 22:02:13 89° WNW 22:06:45 10° NNE
Iridium 2 4.2 21:59:45 10° NNW 22:03:25 51° W 22:04:23 39° SW
Cosmos 1842 4.3 22:03:47 29° E 22:03:55 29° E 22:07:19 10° NNE
Meteor 1-12 Rocket 4.3 22:00:23 10° N 22:06:22 83° ENE 22:08:53 36° SSE
Cosmos 1066 Rocket 4.3 22:05:06 29° SSW 22:08:13 82° W 22:13:54 10° N
ADEOS Rocket 4.1 22:05:31 19° ESE 22:08:40 32° ENE 22:13:56 10° N
Spot 4 4.2 22:07:13 37° SE 22:08:52 56° ENE 22:13:34 10° N
Cosmos 1818 3.7 22:04:11 10° NNW 22:09:39 70° NE 22:12:08 33° SE
Iridium 4 Rocket 3.3 22:07:40 10° N 22:12:15 70° E 22:13:44 44° SSE
Cosmos 1898 Rocket 3.5 22:11:50 38° S 22:13:54 74° ESE 22:19:14 10° NNE
ISS -1.5 22:13:08 10° W 22:14:21 16° WSW 22:14:21 16° WSW
Cosmos 1900 4.4 22:15:19 43° S 22:16:44 61° ESE 22:21:48 10° NE
Okean 1-7 2.9 22:17:25 51° S 22:18:29 84° E 22:22:53 10° N
Iridium 51 4.1 22:21:01 57° WSW 22:21:22 62° W 22:24:54 10° N
Cosmos 2322 Rocket 2.4 22:18:02 20° SW 22:22:00 68° WNW 22:27:37 10° NNE
Okean 3 3.4 22:25:02 59° SSE 22:25:45 76° E 22:30:00 10° NNE
Cosmos 1844 Rocket 2.7 22:20:28 10° NNW 22:26:03 71° WSW 22:27:57 42° S
Cosmos 2322 4.3 22:25:29 34° SE 22:26:37 38° ESE 22:31:52 10° NE
Cosmos 2333 Rocket 2.4 22:25:18 41° SSE 22:26:48 52° ESE 22:32:17 10° NE
Cosmos 1805 4.2 22:24:05 10° NNW 22:27:42 37° W 22:28:28 33° WSW
H-2A R/B 3.5 22:27:56 10° NNE 22:31:59 57° E 22:32:20 55° SE
Cosmos 1461 4.0 22:28:12 10° NNW 22:32:06 38° NE 22:33:55 25° E
BREEZE-M DEB (TANK) 3.5 22:30:01 10° W 22:31:52 31° SW 22:31:52 31° SW
ATLAS 2AS CENTAUR R/B 4.2 22:26:57 10° WSW 22:34:10 40° NW 22:41:08 10° NE
Meteor 1-23 Rocket 4.2 22:34:01 39° S 22:36:19 87° E 22:42:12 10° NNE
USA 267 3.6 22:29:57 10° ESE 22:36:25 65° NNE 22:42:54 10° NW
ATLAS CENTAUR R/B 1.6 22:31:41 10° NW 22:36:36 85° NE 22:37:50 50° SE
Cosmos 1766 3.7 22:39:07 10° NNW 22:42:55 48° W 22:43:23 45° WSW
Cosmos 2219 Rocket 2.3 22:44:47 44° SSE 22:46:09 55° ESE 22:51:36 10° NE
Cosmos 1703 Rocket 4.2 22:48:16 37° SW 22:49:35 50° WNW 22:53:55 10° N
Cosmos 1844 4.0 22:44:03 10° NW 22:49:44 56° WSW 22:51:27 41° SSW
Cosmos 372 Rocket 3.8 22:51:17 49° S 22:52:43 82° ESE 22:57:54 10° NNE
ATLAS 3B R/B 3.9 22:51:44 10° NW 22:58:06 32° WSW 23:00:38 26° SW
Cosmos 1707 2.7 23:00:36 67° ESE 23:00:40 67° E 23:04:31 10° NNE
SL-16 R/B 3.9 22:56:59 10° WSW 23:01:54 29° NW 23:06:50 10° N
NOSS 3-1 (A) 4.2 22:54:48 10° NW 23:02:08 71° NE 23:08:57 18° SE
Cosmos 1782 Rocket 4.1 22:59:59 10° NNW 23:04:09 46° W 23:04:50 42° WSW
ERS-2 2.0 23:03:14 10° NNE 23:06:51 80° WNW 23:06:52 80° WNW
Okean 2 3.7 23:06:39 50° ESE 23:06:51 51° E 23:10:50 10° NNE
CZ-4C R/B 3.0 23:01:34 10° NW 23:08:47 83° NE 23:14:17 24° SE
NOSS 3-1 (C) 4.0 23:02:01 10° NW 23:09:28 77° SW 23:14:03 31° SSE
USA 290 3.6 23:10:46 31° ENE 23:10:46 31° ENE 23:12:53 10° NE
Cosmos 1238 Rocket 3.5 23:09:37 10° N 23:11:57 33° NE 23:11:57 33° NE
Gblst 52 Del rocket 4.4 23:08:49 10° WSW 23:15:12 75° NNW 23:20:54 10° ENE
Cosmos 2237 Rocket 3.4 23:14:56 25° ESE 23:16:00 26° ESE 23:20:39 10° NE
KORONAS-FOTON 3.9 23:16:49 62° E 23:16:49 62° E 23:20:33 10° NNE
Cosmos 1470 3.2 23:15:14 10° NNW 23:18:58 46° W 23:19:01 46° W
Cosmos 1726 4.0 23:16:37 10° NW 23:19:19 20° W 23:19:26 20° W
COSMOS 2428 2.7 23:17:53 47° S 23:19:31 72° ESE 23:25:12 10° NNE
Cosmos 1300 Rocket 3.7 23:16:03 10° NNW 23:20:20 58° W 23:20:51 54° SW
Cosmos 1745 Rocket 4.4 23:16:10 10° N 23:22:16 54° ENE 23:25:01 31° SE
ALOS 2 3.1 23:22:00 42° WSW 23:22:30 44° W 23:26:43 10° NNW
PSLV R/B 3.8 23:18:45 10° NNE 23:23:05 55° E 23:23:40 51° SE
Cosmos 2151 Rocket 3.6 23:18:49 10° N 23:23:13 69° E 23:23:57 57° SE
USA 305 4.1 23:26:44 28° E 23:26:44 28° E 23:29:18 10° ENE
Cosmos 1242 Rocket 2.5 23:22:42 10° NNW 23:26:07 75° NW 23:26:07 75° NW
Cosmos 2360 Rocket 3.4 23:22:25 15° WSW 23:26:39 37° NW 23:31:52 10° NNE
Okean 2 Rocket 3.0 23:22:46 10° N 23:27:19 87° ENE 23:28:05 62° SSE
Cosmos 405 Rocket 3.3 23:28:20 43° E 23:28:20 43° E 23:31:52 10° NNE
Cosmos 1943 Rocket 4.4 23:25:40 10° N 23:30:02 22° NE 23:34:23 10° E
In-Cosmos 22 4.1 23:29:31 46° SSW 23:31:16 83° WNW 23:36:46 10° N
Cosmos 1437 Rocket 3.3 23:29:34 10° N 23:33:11 44° ENE 23:33:33 43° E
Nimbus 7 Rocket 4.3 23:28:19 10° NNE 23:34:13 76° ESE 23:36:12 44° S
Cosmos 1908 3.0 23:30:55 10° N 23:34:43 79° E 23:34:48 78° E
Cosmos 1867 3.5 23:33:44 45° SSW 23:35:30 87° SE 23:41:01 10° NE
Cosmos 2298 Rocket 4.4 23:34:33 42° SE 23:35:42 49° ESE 23:40:48 10° NNE
Meteor 1-21 4.3 23:34:35 41° SSW 23:36:39 72° WNW 23:42:29 10° N
Cosmos 1626 2.0 23:37:36 85° NE 23:37:36 85° NE 23:41:12 10° N
SL-08 R/B 4.5 23:32:47 10° N 23:39:05 81° W 23:41:27 41° S
USA 215 3.5 23:37:12 10° NE 23:43:42 69° NNW 23:50:12 10° WSW
Cosmos 1953 2.6 23:40:15 10° N 23:44:13 55° ENE 23:44:46 50° ESE
Cosmos 2278 Rocket 2.3 23:40:34 10° NNW 23:46:17 76° ENE 23:48:51 34° SE
Cosmos 468 4.4 23:42:17 10° NNW 23:47:33 85° WSW 23:49:03 48° SSE
Cosmos 1674 3.0 23:50:46 52° W 23:50:54 53° WNW 23:54:36 10° N
Sich 1 Rocket 4.3 23:49:24 10° NNW 23:53:30 39° W 23:54:00 38° WSW
ADEOS Rocket 3.4 23:52:27 36° SW 23:54:02 44° W 23:59:44 10° NNW
